Year,Month,Day,Hour,Minute,Value (Times are PST for insolation in W/m^2)
2017,02,26,00,00,0.00
2017,02,26,00,01,0.00
2017,02,26,00,02,0.00
2017,02,26,00,03,0.00
2017,02,26,00,04,0.00
2017,02,26,00,05,0.00
2017,02,26,00,06,0.00
2017,02,26,00,07,0.00
2017,02,26,00,08,0.00
2017,02,26,00,09,0.00
2017,02,26,00,10,0.00
2017,02,26,00,11,0.00
2017,02,26,00,12,0.00
2017,02,26,00,13,0.00
2017,02,26,00,14,0.00
2017,02,26,00,15,0.00
2017,02,26,00,16,0.00
2017,02,26,00,17,0.00
2017,02,26,00,18,0.00
2017,02,26,00,19,0.00
2017,02,26,00,20,0.00
2017,02,26,00,21,0.00
2017,02,26,00,22,0.00
2017,02,26,00,23,0.00
2017,02,26,00,24,0.00
2017,02,26,00,25,0.00
2017,02,26,00,26,0.00
2017,02,26,00,27,0.00
2017,02,26,00,28,0.00
2017,02,26,00,29,0.00
2017,02,26,00,30,0.00
2017,02,26,00,31,0.00
2017,02,26,00,32,0.00
2017,02,26,00,33,0.00
2017,02,26,00,34,0.00
2017,02,26,00,35,0.00
2017,02,26,00,36,0.00
2017,02,26,00,37,0.00
2017,02,26,00,38,0.00
2017,02,26,00,39,0.00
2017,02,26,00,40,0.00
2017,02,26,00,41,0.00
2017,02,26,00,42,0.00
2017,02,26,00,43,0.00
2017,02,26,00,44,0.00
2017,02,26,00,45,0.00
2017,02,26,00,46,0.00
2017,02,26,00,47,0.00
2017,02,26,00,48,0.00
2017,02,26,00,49,0.00
2017,02,26,00,50,0.00
2017,02,26,00,51,0.00
2017,02,26,00,52,0.00
2017,02,26,00,53,0.00
2017,02,26,00,54,0.00
2017,02,26,00,55,0.00
2017,02,26,00,56,0.00
2017,02,26,00,57,0.00
2017,02,26,00,58,0.00
2017,02,26,00,59,0.00
2017,02,26,01,00,0.00
2017,02,26,01,01,0.00
2017,02,26,01,02,0.00
2017,02,26,01,03,0.00
2017,02,26,01,04,0.00
2017,02,26,01,05,0.00
2017,02,26,01,06,0.00
2017,02,26,01,07,0.00
2017,02,26,01,08,0.00
2017,02,26,01,09,0.00
2017,02,26,01,10,0.00
2017,02,26,01,11,0.00
2017,02,26,01,12,0.00
2017,02,26,01,13,0.00
2017,02,26,01,14,0.00
2017,02,26,01,15,0.00
2017,02,26,01,16,0.00
2017,02,26,01,17,0.00
2017,02,26,01,18,0.00
2017,02,26,01,19,0.00
2017,02,26,01,20,0.00
2017,02,26,01,21,0.00
2017,02,26,01,22,0.00
2017,02,26,01,23,0.00
2017,02,26,01,24,0.00
2017,02,26,01,25,0.00
2017,02,26,01,26,0.00
2017,02,26,01,27,0.00
2017,02,26,01,28,0.00
2017,02,26,01,29,0.00
2017,02,26,01,30,0.00
2017,02,26,01,31,0.00
2017,02,26,01,32,0.00
2017,02,26,01,33,0.00
2017,02,26,01,34,0.00
2017,02,26,01,35,0.00
2017,02,26,01,36,0.00
2017,02,26,01,37,0.00
2017,02,26,01,38,0.00
2017,02,26,01,39,0.00
2017,02,26,01,40,0.00
2017,02,26,01,41,0.00
2017,02,26,01,42,0.00
2017,02,26,01,43,0.00
2017,02,26,01,44,0.00
2017,02,26,01,45,0.00
2017,02,26,01,46,0.00
2017,02,26,01,47,0.00
2017,02,26,01,48,0.00
2017,02,26,01,49,0.00
2017,02,26,01,50,0.00
2017,02,26,01,51,0.00
2017,02,26,01,52,0.00
2017,02,26,01,53,0.00
2017,02,26,01,54,0.00
2017,02,26,01,55,0.00
2017,02,26,01,56,0.00
2017,02,26,01,57,0.00
2017,02,26,01,58,0.00
2017,02,26,01,59,0.00
2017,02,26,02,00,0.00
2017,02,26,02,01,0.00
2017,02,26,02,02,0.00
2017,02,26,02,03,0.00
2017,02,26,02,04,0.00
2017,02,26,02,05,0.00
2017,02,26,02,06,0.00
2017,02,26,02,07,0.00
2017,02,26,02,08,0.00
2017,02,26,02,09,0.00
2017,02,26,02,10,0.00
2017,02,26,02,11,0.00
2017,02,26,02,12,0.00
2017,02,26,02,13,0.00
2017,02,26,02,14,0.00
2017,02,26,02,15,0.00
2017,02,26,02,16,0.00
2017,02,26,02,17,0.00
2017,02,26,02,18,0.00
2017,02,26,02,19,0.00
2017,02,26,02,20,0.00
2017,02,26,02,21,0.00
2017,02,26,02,22,0.00
2017,02,26,02,23,0.00
2017,02,26,02,24,0.00
2017,02,26,02,25,0.00
2017,02,26,02,26,0.00
2017,02,26,02,27,0.00
2017,02,26,02,28,0.00
2017,02,26,02,29,0.00
2017,02,26,02,30,0.00
2017,02,26,02,31,0.00
2017,02,26,02,32,0.00
2017,02,26,02,33,0.00
2017,02,26,02,34,0.00
2017,02,26,02,35,0.00
2017,02,26,02,36,0.00
2017,02,26,02,37,0.00
2017,02,26,02,38,0.00
2017,02,26,02,39,0.00
2017,02,26,02,40,0.00
2017,02,26,02,41,0.00
2017,02,26,02,42,0.00
2017,02,26,02,43,0.00
2017,02,26,02,44,0.00
2017,02,26,02,45,0.00
2017,02,26,02,46,0.00
2017,02,26,02,47,0.00
2017,02,26,02,48,0.00
2017,02,26,02,49,0.00
2017,02,26,02,50,0.00
2017,02,26,02,51,0.00
2017,02,26,02,52,0.00
2017,02,26,02,53,0.00
2017,02,26,02,54,0.00
2017,02,26,02,55,0.00
2017,02,26,02,56,0.00
2017,02,26,02,57,0.00
2017,02,26,02,58,0.00
2017,02,26,02,59,0.00
2017,02,26,03,00,0.00
2017,02,26,03,01,0.00
2017,02,26,03,02,0.00
2017,02,26,03,03,0.00
2017,02,26,03,04,0.00
2017,02,26,03,05,0.00
2017,02,26,03,06,0.00
2017,02,26,03,07,0.00
2017,02,26,03,08,0.00
2017,02,26,03,09,0.00
2017,02,26,03,10,0.00
2017,02,26,03,11,0.00
2017,02,26,03,12,0.00
2017,02,26,03,13,0.00
2017,02,26,03,14,0.00
2017,02,26,03,15,0.00
2017,02,26,03,16,0.00
2017,02,26,03,17,0.00
2017,02,26,03,18,0.00
2017,02,26,03,19,0.00
2017,02,26,03,20,0.00
2017,02,26,03,21,0.00
2017,02,26,03,22,0.00
2017,02,26,03,23,0.00
2017,02,26,03,24,0.00
2017,02,26,03,25,0.00
2017,02,26,03,26,0.00
2017,02,26,03,27,0.00
2017,02,26,03,28,0.00
2017,02,26,03,29,0.00
2017,02,26,03,30,0.00
2017,02,26,03,31,0.00
2017,02,26,03,32,0.00
2017,02,26,03,33,0.00
2017,02,26,03,34,0.00
2017,02,26,03,35,0.00
2017,02,26,03,36,0.00
2017,02,26,03,37,0.00
2017,02,26,03,38,0.00
2017,02,26,03,39,0.00
2017,02,26,03,40,0.00
2017,02,26,03,41,0.00
2017,02,26,03,42,0.00
2017,02,26,03,43,0.00
2017,02,26,03,44,0.00
2017,02,26,03,45,0.00
2017,02,26,03,46,0.00
2017,02,26,03,47,0.00
2017,02,26,03,48,0.00
2017,02,26,03,49,0.00
2017,02,26,03,50,0.00
2017,02,26,03,51,0.00
2017,02,26,03,52,0.00
2017,02,26,03,53,0.00
2017,02,26,03,54,0.00
2017,02,26,03,55,0.00
2017,02,26,03,56,0.00
2017,02,26,03,57,0.00
2017,02,26,03,58,0.00
2017,02,26,03,59,0.00
2017,02,26,04,00,0.00
2017,02,26,04,01,0.00
2017,02,26,04,02,0.00
2017,02,26,04,03,0.00
2017,02,26,04,04,0.00
2017,02,26,04,05,0.00
2017,02,26,04,06,0.00
2017,02,26,04,07,0.00
2017,02,26,04,08,0.00
2017,02,26,04,09,0.00
2017,02,26,04,10,0.00
2017,02,26,04,11,0.00
2017,02,26,04,12,0.00
2017,02,26,04,13,0.00
2017,02,26,04,14,0.00
2017,02,26,04,15,0.00
2017,02,26,04,16,0.00
2017,02,26,04,17,0.00
2017,02,26,04,18,0.00
2017,02,26,04,19,0.00
2017,02,26,04,20,0.00
2017,02,26,04,21,0.00
2017,02,26,04,22,0.00
2017,02,26,04,23,0.00
2017,02,26,04,24,0.00
2017,02,26,04,25,0.00
2017,02,26,04,26,0.00
2017,02,26,04,27,0.00
2017,02,26,04,28,0.00
2017,02,26,04,29,0.00
2017,02,26,04,30,0.00
2017,02,26,04,31,0.00
2017,02,26,04,32,0.00
2017,02,26,04,33,0.00
2017,02,26,04,34,0.00
2017,02,26,04,35,0.00
2017,02,26,04,36,0.00
2017,02,26,04,37,0.00
2017,02,26,04,38,0.00
2017,02,26,04,39,0.00
2017,02,26,04,40,0.00
2017,02,26,04,41,0.00
2017,02,26,04,42,0.00
2017,02,26,04,43,0.00
2017,02,26,04,44,0.00
2017,02,26,04,45,0.00
2017,02,26,04,46,0.00
2017,02,26,04,47,0.00
2017,02,26,04,48,0.00
2017,02,26,04,49,0.00
2017,02,26,04,50,0.00
2017,02,26,04,51,0.00
2017,02,26,04,52,0.00
2017,02,26,04,53,0.00
2017,02,26,04,54,0.00
2017,02,26,04,55,0.00
2017,02,26,04,56,0.00
2017,02,26,04,57,0.00
2017,02,26,04,58,0.00
2017,02,26,04,59,0.00
2017,02,26,05,00,0.00
2017,02,26,05,01,0.00
2017,02,26,05,02,0.00
2017,02,26,05,03,0.00
2017,02,26,05,04,0.00
2017,02,26,05,05,0.00
2017,02,26,05,06,0.00
2017,02,26,05,07,0.00
2017,02,26,05,08,0.00
2017,02,26,05,09,0.00
2017,02,26,05,10,0.00
2017,02,26,05,11,0.00
2017,02,26,05,12,0.00
2017,02,26,05,13,0.00
2017,02,26,05,14,0.00
2017,02,26,05,15,0.00
2017,02,26,05,16,0.00
2017,02,26,05,17,0.00
2017,02,26,05,18,0.00
2017,02,26,05,19,0.00
2017,02,26,05,20,0.00
2017,02,26,05,21,0.00
2017,02,26,05,22,0.00
2017,02,26,05,23,0.00
2017,02,26,05,24,0.00
2017,02,26,05,25,0.00
2017,02,26,05,26,0.00
2017,02,26,05,27,0.00
2017,02,26,05,28,0.00
2017,02,26,05,29,0.00
2017,02,26,05,30,0.00
2017,02,26,05,31,0.00
2017,02,26,05,32,0.00
2017,02,26,05,33,0.00
2017,02,26,05,34,0.00
2017,02,26,05,35,0.00
2017,02,26,05,36,0.00
2017,02,26,05,37,0.00
2017,02,26,05,38,0.00
2017,02,26,05,39,0.00
2017,02,26,05,40,0.00
2017,02,26,05,41,0.00
2017,02,26,05,42,0.00
2017,02,26,05,43,0.00
2017,02,26,05,44,0.00
2017,02,26,05,45,0.00
2017,02,26,05,46,0.00
2017,02,26,05,47,0.00
2017,02,26,05,48,0.00
2017,02,26,05,49,0.00
2017,02,26,05,50,0.00
2017,02,26,05,51,0.00
2017,02,26,05,52,0.00
2017,02,26,05,53,0.00
2017,02,26,05,54,0.00
2017,02,26,05,55,0.00
2017,02,26,05,56,0.00
2017,02,26,05,57,0.00
2017,02,26,05,58,0.00
2017,02,26,05,59,0.00
2017,02,26,06,00,0.00
2017,02,26,06,01,0.00
2017,02,26,06,02,0.00
2017,02,26,06,03,0.00
2017,02,26,06,04,0.00
2017,02,26,06,05,0.00
2017,02,26,06,06,0.00
2017,02,26,06,07,0.00
2017,02,26,06,08,0.00
2017,02,26,06,09,0.00
2017,02,26,06,10,0.00
2017,02,26,06,11,0.00
2017,02,26,06,12,0.00
2017,02,26,06,13,0.00
2017,02,26,06,14,0.00
2017,02,26,06,15,0.00
2017,02,26,06,16,0.00
2017,02,26,06,17,0.00
2017,02,26,06,18,0.00
2017,02,26,06,19,0.00
2017,02,26,06,20,0.00
2017,02,26,06,21,0.00
2017,02,26,06,22,0.00
2017,02,26,06,23,0.00
2017,02,26,06,24,0.00
2017,02,26,06,25,0.00
2017,02,26,06,26,0.00
2017,02,26,06,27,0.00
2017,02,26,06,28,0.00
2017,02,26,06,29,0.00
2017,02,26,06,30,0.00
2017,02,26,06,31,0.00
2017,02,26,06,32,0.00
2017,02,26,06,33,0.00
2017,02,26,06,34,0.00
2017,02,26,06,35,0.00
2017,02,26,06,36,0.00
2017,02,26,06,37,0.00
2017,02,26,06,38,0.00
2017,02,26,06,39,0.00
2017,02,26,06,40,0.00
2017,02,26,06,41,0.00
2017,02,26,06,42,0.00
2017,02,26,06,43,0.00
2017,02,26,06,44,0.00
2017,02,26,06,45,0.00
2017,02,26,06,46,0.00
2017,02,26,06,47,0.00
2017,02,26,06,48,0.00
2017,02,26,06,49,0.00
2017,02,26,06,50,0.00
2017,02,26,06,51,0.00
2017,02,26,06,52,0.00
2017,02,26,06,53,0.00
2017,02,26,06,54,0.00
2017,02,26,06,55,0.00
2017,02,26,06,56,0.00
2017,02,26,06,57,0.00
2017,02,26,06,58,0.00
2017,02,26,06,59,0.00
2017,02,26,07,00,0.00
2017,02,26,07,01,0.00
2017,02,26,07,02,0.00
2017,02,26,07,03,0.00
2017,02,26,07,04,0.00
2017,02,26,07,05,0.00
2017,02,26,07,06,0.00
2017,02,26,07,07,0.00
2017,02,26,07,08,0.00
2017,02,26,07,09,0.00
2017,02,26,07,10,0.00
2017,02,26,07,11,0.00
2017,02,26,07,12,0.00
2017,02,26,07,13,0.00
2017,02,26,07,14,0.00
2017,02,26,07,15,0.00
2017,02,26,07,16,0.00
2017,02,26,07,17,1.80
2017,02,26,07,18,5.00
2017,02,26,07,19,5.00
2017,02,26,07,20,5.00
2017,02,26,07,21,5.10
2017,02,26,07,22,6.60
2017,02,26,07,23,5.00
2017,02,26,07,24,5.00
2017,02,26,07,25,6.30
2017,02,26,07,26,8.60
2017,02,26,07,27,9.00
2017,02,26,07,28,9.00
2017,02,26,07,29,9.00
2017,02,26,07,30,10.10
2017,02,26,07,31,11.70
2017,02,26,07,32,12.00
2017,02,26,07,33,12.00
2017,02,26,07,34,12.00
2017,02,26,07,35,12.90
2017,02,26,07,36,14.00
2017,02,26,07,37,15.40
2017,02,26,07,38,16.00
2017,02,26,07,39,19.00
2017,02,26,07,40,19.00
2017,02,26,07,41,19.80
2017,02,26,07,42,19.40
2017,02,26,07,43,18.00
2017,02,26,07,44,18.00
2017,02,26,07,45,21.60
2017,02,26,07,46,25.00
2017,02,26,07,47,24.10
2017,02,26,07,48,21.80
2017,02,26,07,49,18.80
2017,02,26,07,50,16.20
2017,02,26,07,51,16.50
2017,02,26,07,52,19.00
2017,02,26,07,53,18.50
2017,02,26,07,54,18.00
2017,02,26,07,55,18.80
2017,02,26,07,56,18.90
2017,02,26,07,57,17.10
2017,02,26,07,58,22.80
2017,02,26,07,59,28.00
2017,02,26,08,00,26.80
2017,02,26,08,01,25.80
2017,02,26,08,02,32.00
2017,02,26,08,03,30.00
2017,02,26,08,04,32.50
2017,02,26,08,05,37.00
2017,02,26,08,06,35.60
2017,02,26,08,07,35.00
2017,02,26,08,08,35.20
2017,02,26,08,09,37.60
2017,02,26,08,10,39.60
2017,02,26,08,11,39.50
2017,02,26,08,12,40.00
2017,02,26,08,13,40.00
2017,02,26,08,14,72.30
2017,02,26,08,15,74.60
2017,02,26,08,16,73.50
2017,02,26,08,17,71.10
2017,02,26,08,18,78.20
2017,02,26,08,19,89.50
2017,02,26,08,20,89.90
2017,02,26,08,21,84.00
2017,02,26,08,22,91.20
2017,02,26,08,23,108.60
2017,02,26,08,24,110.50
2017,02,26,08,25,92.80
2017,02,26,08,26,89.40
2017,02,26,08,27,89.30
2017,02,26,08,28,95.20
2017,02,26,08,29,85.80
2017,02,26,08,30,69.90
2017,02,26,08,31,60.60
2017,02,26,08,32,57.40
2017,02,26,08,33,57.90
2017,02,26,08,34,71.50
2017,02,26,08,35,72.80
2017,02,26,08,36,62.50
2017,02,26,08,37,52.90
2017,02,26,08,38,42.20
2017,02,26,08,39,35.70
2017,02,26,08,40,35.00
2017,02,26,08,41,34.30
2017,02,26,08,42,36.60
2017,02,26,08,43,39.70
2017,02,26,08,44,40.80
2017,02,26,08,45,42.60
2017,02,26,08,46,41.00
2017,02,26,08,47,40.70
2017,02,26,08,48,40.00
2017,02,26,08,49,44.00
2017,02,26,08,50,47.20
2017,02,26,08,51,51.00
2017,02,26,08,52,52.00
2017,02,26,08,53,48.10
2017,02,26,08,54,46.00
2017,02,26,08,55,50.80
2017,02,26,08,56,50.50
2017,02,26,08,57,47.80
2017,02,26,08,58,43.70
2017,02,26,08,59,40.60
2017,02,26,09,00,40.00
2017,02,26,09,01,39.00
2017,02,26,09,02,39.90
2017,02,26,09,03,42.00
2017,02,26,09,04,48.90
2017,02,26,09,05,54.00
2017,02,26,09,06,71.00
2017,02,26,09,07,72.70
2017,02,26,09,08,66.30
2017,02,26,09,09,74.40
2017,02,26,09,10,90.60
2017,02,26,09,11,100.70
2017,02,26,09,12,109.40
2017,02,26,09,13,106.40
2017,02,26,09,14,108.90
2017,02,26,09,15,115.60
2017,02,26,09,16,111.80
2017,02,26,09,17,112.50
2017,02,26,09,18,129.40
2017,02,26,09,19,164.20
2017,02,26,09,20,189.90
2017,02,26,09,21,160.00
2017,02,26,09,22,141.80
2017,02,26,09,23,126.40
2017,02,26,09,24,125.20
2017,02,26,09,25,129.20
2017,02,26,09,26,133.30
2017,02,26,09,27,131.00
2017,02,26,09,28,130.00
2017,02,26,09,29,130.00
2017,02,26,09,30,133.60
2017,02,26,09,31,121.20
2017,02,26,09,32,113.90
2017,02,26,09,33,110.00
2017,02,26,09,34,111.60
2017,02,26,09,35,113.00
2017,02,26,09,36,113.00
2017,02,26,09,37,113.20
2017,02,26,09,38,114.00
2017,02,26,09,39,113.40
2017,02,26,09,40,113.00
2017,02,26,09,41,113.00
2017,02,26,09,42,114.00
2017,02,26,09,43,114.00
2017,02,26,09,44,112.70
2017,02,26,09,45,107.70
2017,02,26,09,46,102.80
2017,02,26,09,47,102.00
2017,02,26,09,48,98.00
2017,02,26,09,49,100.10
2017,02,26,09,50,107.70
2017,02,26,09,51,112.30
2017,02,26,09,52,113.00
2017,02,26,09,53,119.80
2017,02,26,09,54,131.10
2017,02,26,09,55,137.10
2017,02,26,09,56,140.10
2017,02,26,09,57,137.80
2017,02,26,09,58,135.50
2017,02,26,09,59,130.20
2017,02,26,10,00,128.40
2017,02,26,10,01,130.00
2017,02,26,10,02,140.90
2017,02,26,10,03,148.80
2017,02,26,10,04,155.00
2017,02,26,10,05,158.90
2017,02,26,10,06,165.10
2017,02,26,10,07,158.00
2017,02,26,10,08,154.50
2017,02,26,10,09,144.80
2017,02,26,10,10,134.00
2017,02,26,10,11,124.80
2017,02,26,10,12,118.70
2017,02,26,10,13,112.90
2017,02,26,10,14,109.90
2017,02,26,10,15,107.70
2017,02,26,10,16,105.40
2017,02,26,10,17,101.20
2017,02,26,10,18,97.00
2017,02,26,10,19,93.40
2017,02,26,10,20,86.90
2017,02,26,10,21,84.60
2017,02,26,10,22,84.00
2017,02,26,10,23,83.10
2017,02,26,10,24,83.30
2017,02,26,10,25,83.60
2017,02,26,10,26,83.00
2017,02,26,10,27,83.00
2017,02,26,10,28,83.80
2017,02,26,10,29,86.30
2017,02,26,10,30,88.60
2017,02,26,10,31,90.40
2017,02,26,10,32,92.30
2017,02,26,10,33,94.50
2017,02,26,10,34,96.80
2017,02,26,10,35,99.30
2017,02,26,10,36,105.80
2017,02,26,10,37,113.30
2017,02,26,10,38,122.20
2017,02,26,10,39,130.20
2017,02,26,10,40,136.80
2017,02,26,10,41,145.40
2017,02,26,10,42,154.90
2017,02,26,10,43,164.50
2017,02,26,10,44,165.70
2017,02,26,10,45,165.00
2017,02,26,10,46,170.70
2017,02,26,10,47,173.60
2017,02,26,10,48,172.00
2017,02,26,10,49,174.00
2017,02,26,10,50,177.30
2017,02,26,10,51,176.30
2017,02,26,10,52,176.90
2017,02,26,10,53,187.90
2017,02,26,10,54,202.20
2017,02,26,10,55,209.20
2017,02,26,10,56,209.60
2017,02,26,10,57,203.40
2017,02,26,10,58,200.40
2017,02,26,10,59,202.50
2017,02,26,11,00,202.40
2017,02,26,11,01,199.40
2017,02,26,11,02,199.00
2017,02,26,11,03,199.00
2017,02,26,11,04,195.20
2017,02,26,11,05,195.00
2017,02,26,11,06,195.00
2017,02,26,11,07,196.10
2017,02,26,11,08,200.60
2017,02,26,11,09,206.50
2017,02,26,11,10,211.00
2017,02,26,11,11,211.90
2017,02,26,11,12,214.00
2017,02,26,11,13,214.00
2017,02,26,11,14,215.50
2017,02,26,11,15,224.60
2017,02,26,11,16,234.60
2017,02,26,11,17,236.60
2017,02,26,11,18,236.00
2017,02,26,11,19,239.00
2017,02,26,11,20,246.20
2017,02,26,11,21,256.50
2017,02,26,11,22,265.00
2017,02,26,11,23,270.00
2017,02,26,11,24,273.00
2017,02,26,11,25,272.10
2017,02,26,11,26,271.80
2017,02,26,11,27,271.50
2017,02,26,11,28,267.00
2017,02,26,11,29,265.90
2017,02,26,11,30,266.50
2017,02,26,11,31,270.30
2017,02,26,11,32,271.00
2017,02,26,11,33,271.50
2017,02,26,11,34,265.50
2017,02,26,11,35,260.80
2017,02,26,11,36,263.60
2017,02,26,11,37,264.40
2017,02,26,11,38,258.90
2017,02,26,11,39,263.10
2017,02,26,11,40,245.50
2017,02,26,11,41,232.00
2017,02,26,11,42,288.20
2017,02,26,11,43,305.20
2017,02,26,11,44,355.40
2017,02,26,11,45,330.00
2017,02,26,11,46,350.00
2017,02,26,11,47,436.00
2017,02,26,11,48,475.00
2017,02,26,11,49,566.00
2017,02,26,11,50,534.50
2017,02,26,11,51,533.40
2017,02,26,11,52,600.50
2017,02,26,11,53,607.80
2017,02,26,11,54,610.00
2017,02,26,11,55,626.90
2017,02,26,11,56,639.00
2017,02,26,11,57,643.00
2017,02,26,11,58,646.90
2017,02,26,11,59,656.00
2017,02,26,12,00,656.00
2017,02,26,12,01,656.00
2017,02,26,12,02,511.60
2017,02,26,12,03,458.90
2017,02,26,12,04,400.80
2017,02,26,12,05,360.90
2017,02,26,12,06,321.70
2017,02,26,12,07,264.60
2017,02,26,12,08,236.90
2017,02,26,12,09,267.80
2017,02,26,12,10,280.60
2017,02,26,12,11,325.60
2017,02,26,12,12,364.00
2017,02,26,12,13,402.70
2017,02,26,12,14,500.30
2017,02,26,12,15,520.00
2017,02,26,12,16,481.60
2017,02,26,12,17,446.00
2017,02,26,12,18,505.00
2017,02,26,12,19,485.40
2017,02,26,12,20,571.20
2017,02,26,12,21,573.00
2017,02,26,12,22,587.00
2017,02,26,12,23,608.00
2017,02,26,12,24,608.00
2017,02,26,12,25,474.70
2017,02,26,12,26,424.00
2017,02,26,12,27,381.90
2017,02,26,12,28,264.00
2017,02,26,12,29,264.00
2017,02,26,12,30,264.00
2017,02,26,12,31,264.00
2017,02,26,12,32,320.40
2017,02,26,12,33,659.60
2017,02,26,12,34,661.00
2017,02,26,12,35,657.20
2017,02,26,12,36,639.80
2017,02,26,12,37,648.50
2017,02,26,12,38,650.00
2017,02,26,12,39,612.80
2017,02,26,12,40,498.10
2017,02,26,12,41,464.00
2017,02,26,12,42,601.20
2017,02,26,12,43,638.50
2017,02,26,12,44,615.30
2017,02,26,12,45,581.80
2017,02,26,12,46,615.00
2017,02,26,12,47,615.00
2017,02,26,12,48,608.20
2017,02,26,12,49,605.50
2017,02,26,12,50,601.40
2017,02,26,12,51,610.30
2017,02,26,12,52,626.00
2017,02,26,12,53,628.00
2017,02,26,12,54,628.00
2017,02,26,12,55,626.10
2017,02,26,12,56,627.00
2017,02,26,12,57,631.80
2017,02,26,12,58,633.00
2017,02,26,12,59,633.00
2017,02,26,13,00,593.80
2017,02,26,13,01,594.60
2017,02,26,13,02,610.20
2017,02,26,13,03,591.40
2017,02,26,13,04,555.50
2017,02,26,13,05,527.40
2017,02,26,13,06,545.60
2017,02,26,13,07,550.00
2017,02,26,13,08,580.00
2017,02,26,13,09,621.40
2017,02,26,13,10,529.80
2017,02,26,13,11,487.00
2017,02,26,13,12,487.00
2017,02,26,13,13,504.10
2017,02,26,13,14,606.40
2017,02,26,13,15,619.90
2017,02,26,13,16,625.40
2017,02,26,13,17,640.20
2017,02,26,13,18,644.50
2017,02,26,13,19,629.00
2017,02,26,13,20,596.20
2017,02,26,13,21,580.00
2017,02,26,13,22,606.50
2017,02,26,13,23,626.50
2017,02,26,13,24,616.30
2017,02,26,13,25,613.50
2017,02,26,13,26,620.20
2017,02,26,13,27,636.00
2017,02,26,13,28,623.90
2017,02,26,13,29,614.20
2017,02,26,13,30,575.70
2017,02,26,13,31,579.80
2017,02,26,13,32,562.20
2017,02,26,13,33,530.00
2017,02,26,13,34,457.50
2017,02,26,13,35,451.00
2017,02,26,13,36,494.70
2017,02,26,13,37,505.00
2017,02,26,13,38,506.00
2017,02,26,13,39,503.00
2017,02,26,13,40,523.20
2017,02,26,13,41,526.00
2017,02,26,13,42,536.00
2017,02,26,13,43,536.50
2017,02,26,13,44,542.80
2017,02,26,13,45,551.10
2017,02,26,13,46,543.90
2017,02,26,13,47,556.30
2017,02,26,13,48,572.70
2017,02,26,13,49,569.70
2017,02,26,13,50,569.00
2017,02,26,13,51,574.20
2017,02,26,13,52,571.50
2017,02,26,13,53,567.20
2017,02,26,13,54,576.40
2017,02,26,13,55,573.00
2017,02,26,13,56,569.80
2017,02,26,13,57,564.20
2017,02,26,13,58,558.50
2017,02,26,13,59,555.50
2017,02,26,14,00,557.60
2017,02,26,14,01,552.00
2017,02,26,14,02,527.80
2017,02,26,14,03,507.60
2017,02,26,14,04,526.20
2017,02,26,14,05,531.50
2017,02,26,14,06,541.80
2017,02,26,14,07,544.30
2017,02,26,14,08,543.00
2017,02,26,14,09,541.10
2017,02,26,14,10,540.00
2017,02,26,14,11,532.30
2017,02,26,14,12,516.20
2017,02,26,14,13,502.10
2017,02,26,14,14,497.50
2017,02,26,14,15,495.90
2017,02,26,14,16,508.00
2017,02,26,14,17,534.80
2017,02,26,14,18,529.30
2017,02,26,14,19,504.00
2017,02,26,14,20,504.00
2017,02,26,14,21,468.90
2017,02,26,14,22,462.80
2017,02,26,14,23,458.00
2017,02,26,14,24,392.20
2017,02,26,14,25,423.80
2017,02,26,14,26,461.00
2017,02,26,14,27,491.10
2017,02,26,14,28,503.10
2017,02,26,14,29,492.00
2017,02,26,14,30,454.20
2017,02,26,14,31,358.00
2017,02,26,14,32,326.80
2017,02,26,14,33,322.20
2017,02,26,14,34,287.60
2017,02,26,14,35,292.30
2017,02,26,14,36,337.70
2017,02,26,14,37,311.60
2017,02,26,14,38,330.80
2017,02,26,14,39,373.40
2017,02,26,14,40,381.00
2017,02,26,14,41,357.20
2017,02,26,14,42,271.80
2017,02,26,14,43,290.00
2017,02,26,14,44,298.40
2017,02,26,14,45,304.00
2017,02,26,14,46,357.80
2017,02,26,14,47,346.70
2017,02,26,14,48,297.00
2017,02,26,14,49,338.70
2017,02,26,14,50,405.80
2017,02,26,14,51,434.40
2017,02,26,14,52,420.60
2017,02,26,14,53,431.00
2017,02,26,14,54,414.10
2017,02,26,14,55,394.00
2017,02,26,14,56,425.80
2017,02,26,14,57,401.70
2017,02,26,14,58,369.50
2017,02,26,14,59,342.80
2017,02,26,15,00,328.60
2017,02,26,15,01,336.40
2017,02,26,15,02,325.00
2017,02,26,15,03,320.60
2017,02,26,15,04,404.20
2017,02,26,15,05,410.60
2017,02,26,15,06,404.00
2017,02,26,15,07,357.90
2017,02,26,15,08,296.80
2017,02,26,15,09,278.10
2017,02,26,15,10,276.00
2017,02,26,15,11,311.50
2017,02,26,15,12,409.00
2017,02,26,15,13,404.40
2017,02,26,15,14,386.80
2017,02,26,15,15,344.50
2017,02,26,15,16,347.80
2017,02,26,15,17,313.70
2017,02,26,15,18,302.10
2017,02,26,15,19,276.90
2017,02,26,15,20,281.00
2017,02,26,15,21,273.50
2017,02,26,15,22,267.80
2017,02,26,15,23,279.00
2017,02,26,15,24,279.00
2017,02,26,15,25,338.40
2017,02,26,15,26,374.20
2017,02,26,15,27,371.10
2017,02,26,15,28,371.00
2017,02,26,15,29,369.20
2017,02,26,15,30,365.10
2017,02,26,15,31,362.80
2017,02,26,15,32,362.00
2017,02,26,15,33,359.10
2017,02,26,15,34,354.60
2017,02,26,15,35,352.60
2017,02,26,15,36,352.00
2017,02,26,15,37,352.00
2017,02,26,15,38,346.40
2017,02,26,15,39,342.80
2017,02,26,15,40,339.00
2017,02,26,15,41,338.60
2017,02,26,15,42,335.80
2017,02,26,15,43,332.60
2017,02,26,15,44,329.60
2017,02,26,15,45,327.10
2017,02,26,15,46,325.90
2017,02,26,15,47,322.60
2017,02,26,15,48,321.00
2017,02,26,15,49,317.10
2017,02,26,15,50,316.00
2017,02,26,15,51,312.90
2017,02,26,15,52,310.40
2017,02,26,15,53,309.00
2017,02,26,15,54,306.20
2017,02,26,15,55,302.50
2017,02,26,15,56,301.00
2017,02,26,15,57,299.00
2017,02,26,15,58,297.50
2017,02,26,15,59,293.20
2017,02,26,16,00,289.60
2017,02,26,16,01,287.20
2017,02,26,16,02,285.10
2017,02,26,16,03,282.20
2017,02,26,16,04,278.60
2017,02,26,16,05,277.10
2017,02,26,16,06,274.80
2017,02,26,16,07,274.00
2017,02,26,16,08,271.10
2017,02,26,16,09,266.60
2017,02,26,16,10,264.10
2017,02,26,16,11,261.00
2017,02,26,16,12,260.00
2017,02,26,16,13,257.60
2017,02,26,16,14,255.00
2017,02,26,16,15,251.00
2017,02,26,16,16,249.90
2017,02,26,16,17,246.00
2017,02,26,16,18,243.30
2017,02,26,16,19,243.00
2017,02,26,16,20,239.20
2017,02,26,16,21,238.00
2017,02,26,16,22,233.20
2017,02,26,16,23,230.40
2017,02,26,16,24,227.60
2017,02,26,16,25,225.40
2017,02,26,16,26,222.80
2017,02,26,16,27,219.50
2017,02,26,16,28,217.20
2017,02,26,16,29,214.40
2017,02,26,16,30,211.50
2017,02,26,16,31,207.60
2017,02,26,16,32,205.40
2017,02,26,16,33,202.00
2017,02,26,16,34,200.80
2017,02,26,16,35,197.90
2017,02,26,16,36,195.60
2017,02,26,16,37,195.00
2017,02,26,16,38,189.40
2017,02,26,16,39,185.70
2017,02,26,16,40,184.10
2017,02,26,16,41,183.00
2017,02,26,16,42,179.30
2017,02,26,16,43,176.30
2017,02,26,16,44,175.20
2017,02,26,16,45,171.70
2017,02,26,16,46,169.20
2017,02,26,16,47,165.80
2017,02,26,16,48,162.80
2017,02,26,16,49,160.10
2017,02,26,16,50,158.00
2017,02,26,16,51,156.40
2017,02,26,16,52,151.00
2017,02,26,16,53,148.40
2017,02,26,16,54,145.00
2017,02,26,16,55,142.20
2017,02,26,16,56,141.20
2017,02,26,16,57,137.60
2017,02,26,16,58,133.50
2017,02,26,16,59,132.00
2017,02,26,17,00,128.80
2017,02,26,17,01,126.90
2017,02,26,17,02,124.00
2017,02,26,17,03,120.60
2017,02,26,17,04,120.00
2017,02,26,17,05,115.90
2017,02,26,17,06,113.20
2017,02,26,17,07,110.80
2017,02,26,17,08,108.00
2017,02,26,17,09,104.60
2017,02,26,17,10,102.90
2017,02,26,17,11,100.60
2017,02,26,17,12,98.30
2017,02,26,17,13,94.80
2017,02,26,17,14,92.40
2017,02,26,17,15,89.70
2017,02,26,17,16,86.90
2017,02,26,17,17,86.00
2017,02,26,17,18,83.40